Tracking 19485 objects as of 21-Jan-2019
HD Live streaming from Space Station
objects crossing your sky now

COSMOS 1302

Track COSMOS 1302 now!
10-day predictions
COSMOS 1302 is classified as:


NORAD ID: 12791
Int'l Code: 1981-084A
Perigee: 771.4 km
Apogee: 799.2 km
Inclination: 74.0 °
Period: 100.4 minutes
Semi major axis: 7156 km
RCS: 2.1358 m2 (large)
Launch date: August 28, 1981
Source: Commonwealth of Independent States (former USSR) (CIS)
Launch site: PLESETSK MISSILE AND SPACE COMPLEX (PKMTR)
aabbcc
Your satellite tracking list
Your tracking list is empty




NASA's NSSDC Master Catalog

Two Line Element Set (TLE):
1 12791U 81084A   19020.82390003 -.00000019 +00000-0 +25761-5 0  9995
2 12791 074.0279 145.2322 0019414 234.1667 125.7682 14.34068421954998
Source of the keplerian elements: AFSPC